Temp
-5 -5 -5 -5 -5 -4 -4 -4 -5 -5 -5 -5 -6 -5 -5 -6 -5 -6 -6 -5 -5 -5 -5 -5 -5 -5 -5 -5 -5 -5 -5 -6 -6 -6 -6 -6 -7 -6
-4 -4 -4 -4 -4 -4 -4 -4 -5 -5 -5 -5 -5 -5 -5 -5 -6 -6 -6 -6 -6 -5 -5 -5 -5 -5 -5 -5 -5 -5 -5 -5 -5 -6 -6 -6 -6 -7
-4 -4 -4 -4 -5 -5 -5 -5 -5 -5 -5 -5 -6 -5 -5 -6 -6 -5 -5 -6 -5 -5 -5 -5 -5 -5 -5 -5 -5 -5 -5 -5 -6 -6 -6 -6 -6 -6
-5 -5 -5 -5 -5 -5 -5 -5 -5 -5 -5 -5 -5 -6 -6 -5 -5 -6 -5 -5 -5 -5 -6 -6 -5 -5 -5 -5 -5 -5 -5 -5 -6 -6 -6 -6 -6 -6
-5 -5 -5 -5 -5 -5 -5 -5 -5 -5 -6 -5 -6 -5 -5 -6 -6 -6 -6 -6 -6 -6 -6 -6 -6 -6 -5 -6 -6 -6 -5 -5 -5 -5 -5 -6 -6 -6
-5 -5 -5 -5 -6 -5 -5 -5 -5 -6 -6 -6 -6 -6 -6 -6 -6 -6 -6 -6 -6 -6 -6 -6 -6 -6 -5 -6 -6 -6 -6 -6 -6 -7 -7 -7 -6 -6
-6 -6 -6 -5 -5 -5 -5 -6 -5 -5 -5 -5 -6 -6 -6 -6 -5 -5 -5 -5 -6 -6 -7 -7 -6 -6 -6 -6 -6 -6 -6 -6 -6 -6 -7 -7 -7 -7
-5 -5 -5 -6 -6 -6 -6 -6 -6 -6 -5 -5 -5 -6 -5 -5 -5 -5 -6 -6 -6 -6 -6 -7 -7 -7 -7 -7 -7 -7 -7 -7 -7 -7 -7 -7 -7 -7
-5 -5 -5 -5 -5 -6 -5 -6 -5 -5 -6 -5 -5 -6 -6 -5 -6 -5 -5 -5 -6 -6 -6 -6 -7 -7 -6 -6 -7 -7 -7 -7 -7 -7 -7 -7 -7 -7
-5 -6 -5 -5 -5 -5 -5 -6 -5 -6 -6 -6 -6 -6 -6 -6 -6 -6 -6 -6 -6 -6 -6 -6 -6 -7 -7 -6 -7 -7 -7 -7 -7 -7 -7 -6 -6 -7
-5 -5 -5 -5 -6 -6 -5 -6 -6 -6 -6 -7 -6 -6 -6 -6 -6 -6 -6 -6 -7 -6 -6 -6 -5 -6 -7 -7 -7 -7 -7 -7 -7 -7 -7 -7 -7 -7
-5 -5 -5 -5 -5 -6 -6 -5 -6 -6 -6 -6 -6 -5 -6 -6 -6 -6 -7 -6 -7 -7 -7 -7 -6 -6 -7 -7 -7 -7 -7 -7 -7 -7 -7 -8 -8 -7
-6 -5 -5 -6 -6 -6 -6 -6 -6 -6 -6 -6 -6 -6 -6 -6 -7 -6 -6 -7 -6 -7 -7 -8 -8 -8 -8 -7 -7 -8 -8 -8 -8 -8 -8 -8 -8 -8
-6 -6 -6 -6 -6 -6 -6 -6 -6 -6 -6 -6 -6 -7 -7 -7 -7 -7 -7 -7 -7 -8 -8 -8 -8 -9 -9 -9 -8 -8 -9 -9 -8 -8 -9 -9 -9 -9
-6 -6 -6 -6 -7 -7 -7 -7 -7 -7 -7 -7 -7 -7 -7 -8 -8 -8 -8 -8 -9 -9 -8 -9 -10 -10 -11 -12 -10 -8 -9 -9 -10 -10 -10 -10 -9 -9
-7 -6 -6 -5 -6 -6 -6 -7 -7 -7 -7 -8 -8 -8 -8 -9 -9 -9 -9 -10 -9 -9 -9 -9 -9 -10 -10 -10 -10 -9 -10 -10 -10 -11 -10 -10 -11 -10
-7 -7 -8 -8 -8 -8 -8 -9 -8 -8 -9 -9 -9 -9 -9 -9 -9 -9 -9 -9 -9 -10 -10 -10 -10 -10 -11 -11 -11 -10 -11 -11 -11 -11 -11 -11 -11 -11
-9 -9 -9 -9 -9 -9 -9 -9 -9 -9 -9 -9 -9 -9 -10 -10 -10 -11 -10 -11 -10 -10 -10 -11 -11 -12 -11 -11 -11 -12 -12 -11 -12 -12 -12 -12 -12 -12
-9 -9 -9 -9 -9 -9 -9 -10 -11 -10 -10 -10 -10 -11 -10 -11 -12 -11 -12 -12 -12 -12 -12 -11 -13 -12 -12 -11 -12 -13 -13 -13 -13 -13 -13 -13 -14 -13
-10 -10 -10 -10 -10 -10 -10 -11 -11 -11 -10 -10 -11 -11 -11 -12 -12 -12 -12 -12 -12 -12 -12 -12 -13 -13 -12 -13 -13 -14 -14 -15 -15 -15 -15 -14 -14 -15
-11 -11 -11 -11 -11 -11 -12 -12 -12 -12 -12 -12 -12 -12 -12 -13 -13 -13 -13 -13 -13 -13 -13 -13 -14 -14 -14 -14 -15 -15 -15 -15 -15 -15 -16 -16 -16 -17
-12 -12 -12 -12 -12 -12 -12 -12 -12 -13 -13 -13 -13 -13 -13 -13 -13 -13 -13 -14 -14 -14 -14 -15 -15 -16 -16 -16 -16 -17 -17 -17 -17 -18 -18 -17 -18 -18
-12 -12 -12 -12 -12 -13 -13 -13 -13 -13 -13 -14 -14 -14 -14 -14 -15 -15 -15 -15 -16 -16 -16 -16 -17 -18 -18 -18 -18 -18 -18 -18 -18 -19 -19 -19 -19 -20
Height
5944 5945 5944 5944 5945 5945 5946 5945 5944 5943 5943 5942 5941 5941 5940 5940 5940 5938 5936 5934 5932 5932 5930 5930 5929 5928 5928 5926 5925 5925 5924 5922 5920 5919 5918 5916 5914 5913
5943 5943 5943 5943 5944 5943 5944 5943 5943 5942 5939 5940 5941 5939 5941 5940 5938 5936 5935 5932 5932 5930 5929 5928 5928 5927 5926 5925 5923 5923 5922 5921 5920 5919 5918 5917 5916 5915
5940 5941 5941 5941 5942 5941 5940 5940 5940 5941 5939 5936 5936 5937 5937 5937 5936 5935 5931 5930 5930 5929 5929 5928 5927 5926 5925 5924 5922 5921 5920 5919 5918 5917 5916 5915 5913 5911
5938 5938 5939 5939 5939 5939 5940 5939 5939 5938 5938 5936 5935 5932 5930 5931 5929 5928 5927 5926 5927 5928 5927 5926 5924 5923 5921 5920 5919 5917 5916 5915 5914 5913 5912 5911 5909 5908
5936 5936 5937 5936 5937 5937 5937 5937 5937 5936 5936 5934 5933 5932 5929 5929 5928 5926 5926 5925 5924 5923 5923 5922 5920 5918 5917 5916 5915 5914 5912 5911 5910 5908 5907 5906 5905 5903
5932 5933 5934 5933 5933 5933 5933 5933 5933 5932 5932 5930 5928 5927 5928 5927 5927 5924 5923 5922 5920 5919 5918 5918 5916 5913 5911 5910 5908 5907 5906 5904 5903 5901 5900 5900 5899 5898
5928 5927 5928 5929 5929 5928 5928 5928 5927 5927 5927 5927 5925 5923 5922 5921 5920 5903 5914 5915 5916 5914 5912 5912 5909 5907 5906 5904 5902 5900 5899 5898 5897 5895 5893 5892 5890 5890
5922 5922 5922 5922 5922 5922 5921 5920 5920 5920 5920 5920 5918 5917 5916 5916 5915 5913 5911 5912 5911 5907 5907 5909 5904 5900 5898 5896 5895 5894 5891 5889 5888 5886 5884 5882 5881 5879
5915 5915 5915 5914 5915 5915 5913 5911 5912 5913 5911 5911 5912 5909 5908 5907 5906 5906 5907 5905 5903 5900 5899 5899 5899 5893 5888 5889 5886 5884 5882 5880 5878 5876 5875 5872 5870 5869
5907 5906 5906 5906 5906 5905 5905 5904 5904 5905 5901 5900 5902 5902 5901 5898 5897 5896 5895 5893 5893 5893 5891 5888 5891 5887 5880 5880 5878 5876 5873 5871 5868 5866 5865 5863 5860 5856
5900 5896 5896 5897 5898 5896 5896 5896 5895 5895 5893 5891 5891 5892 5891 5890 5888 5885 5887 5884 5884 5881 5882 5879 5875 5880 5875 5871 5867 5864 5862 5860 5857 5855 5852 5850 5849 5848
5888 5886 5885 5887 5887 5886 5884 5885 5885 5884 5883 5881 5879 5880 5880 5879 5877 5875 5873 5873 5871 5869 5868 5866 5859 5862 5863 5862 5857 5852 5846 5847 5847 5844 5840 5837 5835 5836
5874 5874 5874 5875 5875 5876 5874 5873 5874 5873 5872 5871 5869 5868 5867 5865 5863 5859 5858 5856 5855 5853 5853 5852 5848 5845 5841 5841 5846 5842 5837 5833 5834 5833 5830 5829 5826 5823
5865 5863 5863 5864 5864 5864 5863 5862 5861 5861 5860 5858 5858 5856 5853 5851 5849 5846 5842 5842 5841 5839 5839 5837 5835 5832 5826 5820 5821 5832 5828 5823 5822 5821 5820 5818 5816 5814
5858 5856 5855 5854 5853 5853 5852 5850 5849 5848 5847 5844 5843 5840 5837 5836 5833 5831 5829 5827 5826 5826 5824 5821 5819 5814 5811 5810 5804 5809 5813 5814 5810 5807 5807 5805 5801 5801
5848 5846 5845 5843 5842 5840 5838 5837 5836 5835 5833 5831 5829 5828 5826 5825 5823 5821 5819 5818 5816 5813 5811 5807 5804 5802 5800 5797 5793 5794 5794 5795 5797 5791 5788 5788 5788 5788
5839 5838 5836 5835 5832 5830 5827 5826 5825 5825 5823 5821 5818 5815 5813 5811 5809 5808 5806 5804 5802 5801 5799 5794 5790 5789 5785 5783 5780 5778 5778 5775 5774 5771 5769 5769 5767 5767
5830 5829 5827 5825 5823 5822 5818 5817 5814 5811 5809 5807 5804 5802 5799 5797 5794 5792 5791 5788 5785 5784 5783 5782 5775 5771 5770 5767 5765 5764 5761 5756 5756 5752 5749 5746 5744 5748
5819 5817 5815 5813 5812 5809 5807 5805 5804 5802 5798 5793 5791 5788 5785 5781 5778 5776 5774 5773 5771 5767 5766 5763 5758 5755 5750 5752 5746 5742 5742 5742 5737 5734 5730 5727 5723 5725
5807 5805 5803 5800 5799 5796 5794 5792 5789 5787 5784 5781 5778 5774 5770 5767 5764 5761 5759 5754 5752 5751 5749 5746 5739 5737 5734 5731 5730 5726 5722 5719 5716 5713 5712 5708 5704 5701
5796 5793 5791 5789 5787 5784 5781 5778 5776 5774 5770 5766 5763 5760 5755 5752 5749 5746 5742 5739 5735 5733 5731 5727 5722 5720 5715 5711 5710 5710 5705 5700 5698 5696 5693 5689 5687 5683
5785 5783 5781 5779 5777 5774 5771 5767 5764 5761 5757 5752 5749 5745 5741 5736 5732 5729 5727 5722 5718 5713 5712 5708 5703 5700 5697 5693 5690 5688 5689 5684 5679 5677 5674 5673 5670 5666
5776 5773 5770 5766 5763 5760 5756 5752 5749 5745 5742 5738 5732 5728 5725 5718 5715 5711 5707 5704 5699 5695 5692 5688 5686 5681 5678 5675 5674 5671 5668 5666 5664 5661 5658 5656 5653 5649
Wind_Speed
5 2 2 4 4 6 5 7 9 8 8 10 10 8 9 8 7 4 6 6 7 5 6 6 7 7 8 9 10 11 13 15 15 14 16 18 17 11
6 5 6 6 8 8 9 9 8 9 9 8 7 9 9 8 8 8 8 8 8 8 7 6 6 8 9 10 10 10 10 10 12 13 14 15 17 17
10 10 9 9 8 8 8 7 8 8 9 10 12 11 9 9 8 12 11 12 13 13 14 15 14 13 13 14 14 15 14 13 13 13 15 16 16 16
13 11 11 11 10 11 10 11 9 10 11 12 12 14 13 13 12 14 13 13 15 16 16 16 17 18 18 18 18 17 17 16 17 18 17 18 18 20
18 15 15 16 14 15 15 15 15 15 14 11 17 17 17 15 16 18 17 17 17 18 19 21 22 22 22 22 21 21 21 22 23 24 24 24 24 23
20 20 20 20 20 20 21 21 20 20 21 21 21 23 20 20 16 23 20 20 22 19 22 23 24 23 24 25 26 26 26 26 25 25 25 26 28 29
23 25 24 24 25 25 25 25 26 25 24 26 25 25 24 22 21 28 23 21 24 20 23 23 27 28 27 28 27 27 28 28 29 31 29 28 28 28
27 27 28 27 27 27 28 30 29 28 27 25 25 27 28 27 27 28 32 24 27 25 25 25 31 34 35 33 32 33 33 34 34 34 34 35 35 33
30 31 31 31 30 31 31 31 30 29 32 32 30 30 31 32 33 33 34 35 30 29 32 31 33 36 37 36 40 40 40 40 39 39 39 40 41 40
33 34 36 34 31 33 33 34 36 34 36 35 31 33 31 33 34 36 36 38 37 40 39 40 32 32 40 38 33 35 40 42 45 45 44 43 42 39
33 35 37 41 39 35 35 38 35 32 35 39 38 39 41 41 43 45 43 44 44 49 47 49 48 37 39 41 41 44 45 45 45 45 43 42 43 39
39 40 40 42 37 38 39 37 37 37 39 40 46 44 41 44 47 48 48 53 54 55 53 51 52 49 45 46 48 48 50 46 45 44 42 40 38 39
43 40 42 41 41 41 40 40 37 40 46 48 49 50 50 53 54 57 59 59 58 60 55 48 47 48 47 49 39 37 41 48 44 41 43 42 41 39
38 35 33 38 44 43 43 46 46 49 50 50 49 54 60 59 57 61 65 59 56 46 49 39 37 40 45 46 47 36 32 40 42 41 41 41 43 45
29 26 28 36 41 42 42 42 45 49 51 52 54 53 49 47 50 52 51 50 44 46 45 40 35 42 42 37 46 44 41 37 45 46 45 49 51 50
32 30 30 33 36 37 41 43 47 51 48 46 43 42 43 38 38 39 40 35 42 44 49 47 47 46 47 48 51 51 50 50 48 51 54 54 55 55
37 38 36 34 34 32 31 32 31 35 35 36 36 38 40 35 38 47 48 49 50 48 47 49 52 51 53 54 56 59 59 57 58 60 59 60 61 61
38 39 38 39 38 38 32 32 34 36 38 40 43 41 41 42 45 43 48 47 47 48 51 52 51 53 55 60 59 55 54 55 57 59 59 59 53 53
43 45 45 47 46 48 51 55 53 47 45 43 45 49 52 58 60 62 62 61 65 58 59 64 67 68 65 64 69 67 67 66 65 70 72 68 66 65
41 44 45 46 48 48 51 49 48 52 56 57 57 58 59 57 54 53 54 57 60 61 65 69 70 73 75 70 65 63 59 60 64 67 65 67 71 71
33 34 34 35 37 38 38 40 42 44 45 47 49 50 52 53 53 53 54 55 56 57 58 59 62 62 62 62 61 59 58 60 61 60 58 56 56 55
33 34 34 36 37 39 41 45 47 49 50 52 54 55 57 59 60 61 61 62 63 64 64 63 61 60 61 60 59 58 55 54 54 52 53 54 54 54
37 40 42 44 46 47 49 49 50 52 52 53 56 58 59 61 62 62 62 61 61 61 60 60 58 56 56 55 54 54 53 53 53 51 51 50 50 50
Wind_Direction
234 273 297 295 294 297 313 312 316 321 317 322 327 8 309 337 303 322 343 8 23 7 14 358 353 0 7 4 9 12 10 6 14 14 14 5 12 21
249 252 257 267 278 287 290 298 308 317 316 321 310 314 316 323 318 327 321 336 322 332 325 309 303 309 316 317 321 330 336 341 338 341 348 347 354 358
253 248 251 254 255 267 275 285 301 313 313 314 309 309 320 309 315 306 315 319 319 314 308 310 310 307 306 306 305 308 312 314 314 315 316 321 328 328
267 273 270 271 267 272 276 279 290 286 296 298 300 300 305 305 313 302 307 309 304 303 304 305 303 302 300 301 301 301 303 302 303 302 302 304 306 311
277 274 274 274 274 277 280 285 288 287 286 301 289 285 286 296 293 289 291 288 288 294 295 297 296 297 299 301 302 303 304 306 307 308 308 306 302 300
277 280 276 274 275 278 282 283 281 283 282 282 282 281 287 287 278 280 273 278 283 287 291 292 289 290 291 293 296 296 296 296 296 296 297 299 299 297
275 276 279 276 276 281 282 283 282 279 281 279 283 277 281 281 283 250 256 276 282 284 290 289 289 291 289 288 286 286 287 289 292 294 295 296 294 294
273 273 275 275 279 281 284 282 282 284 284 285 285 277 280 284 280 287 283 287 285 291 287 287 289 290 290 287 288 289 289 288 287 285 284 287 289 287
272 274 274 273 274 278 279 280 281 286 285 282 282 279 280 285 285 285 283 282 286 289 291 286 284 283 282 282 285 283 284 284 284 285 284 283 282 282
273 274 271 270 274 275 277 276 276 281 283 281 280 281 278 278 281 284 283 281 285 289 286 282 272 277 282 286 288 288 288 287 289 291 291 291 287 278
268 272 275 266 269 266 272 271 278 272 275 278 277 280 280 279 281 281 285 280 280 279 281 283 281 271 274 278 282 284 286 287 286 290 291 293 294 289
274 278 277 268 264 274 270 270 264 269 269 269 278 280 276 275 282 283 283 283 277 274 281 277 278 273 267 269 275 280 285 284 287 287 286 286 288 288
273 280 273 259 271 272 273 273 261 273 262 275 269 274 277 281 283 280 284 286 279 276 276 271 271 275 277 271 264 273 275 279 280 282 283 284 283 278
275 275 273 263 263 267 271 272 273 269 275 281 278 276 280 280 282 281 282 283 277 270 269 262 267 272 280 277 274 274 278 276 282 287 284 282 281 280
286 289 285 277 271 272 274 274 272 272 276 273 279 281 283 285 281 272 277 272 265 267 249 260 266 268 265 274 270 272 277 280 284 280 280 283 283 280
277 275 274 275 274 275 276 274 271 272 273 272 272 276 281 281 280 271 270 274 263 268 265 265 271 273 273 275 276 278 280 279 278 280 281 282 280 278
282 282 282 278 274 271 273 271 270 274 274 275 268 268 272 268 268 278 277 280 284 283 282 281 281 281 283 283 283 283 282 282 280 281 280 281 282 280
274 274 275 273 276 275 269 270 264 260 265 267 259 263 264 263 260 267 272 275 274 277 279 277 277 284 278 276 274 273 277 276 277 279 282 288 285 282
277 278 280 284 283 281 282 281 287 281 270 261 266 273 273 280 287 291 295 292 295 286 287 280 290 287 286 278 283 287 285 284 288 287 289 290 289 288
282 282 284 284 284 285 287 287 284 283 284 287 290 291 292 292 292 290 288 286 285 283 281 282 282 283 284 288 289 288 286 285 283 283 283 284 285 285
288 289 289 289 291 292 293 292 292 292 292 292 292 291 291 290 290 290 290 288 285 284 283 283 284 284 286 287 287 288 287 285 284 285 285 286 287 286
289 291 291 292 293 294 293 292 291 289 288 287 287 287 287 287 287 287 286 285 286 287 286 287 288 288 288 287 288 287 286 283 283 284 284 283 283 283
291 292 293 293 293 293 293 292 291 290 290 290 291 290 290 290 289 290 289 288 288 288 289 288 288 288 287 286 285 283 283 284 283 282 283 282 282 281